| time (UTC) | temp F | wind direction | speed MPH | gust MPH | rain 1hr in | rain 24hr in | rain mn in | humidity % | barometer mb |
| 20260507111003 | 59 | 9 | 4.0 | 14.0 | 0.00 | 0.00 | 0.00 | 88 | 1014.5 |
| 20260507104842 | 59 | 35 | 6.0 | 13.0 | 0.00 | 0.00 | 0.00 | 87 | 1014.3 |
| 20260507103857 | 59 | 328 | 6.0 | 13.0 | 0.00 | 0.00 | 0.00 | 87 | 1014.2 |
| 20260507102853 | 59 | 346 | 3.0 | 11.0 | 0.00 | 0.00 | 0.00 | 87 | 1014.2 |
| 20260507101847 | 60 | 13 | 4.0 | 12.0 | 0.00 | 0.00 | 0.00 | 87 | 1014.3 |
| 20260507100827 | 60 | 5 | 4.0 | 12.0 | 0.00 | 0.00 | 0.00 | 86 | 1013.8 |
| 20260507095836 | 60 | 350 | 4.0 | 12.0 | 0.00 | 0.00 | 0.00 | 86 | 1013.9 |
| 20260507094811 | 60 | 5 | 3.0 | 10.0 | 0.00 | 0.00 | 0.00 | 86 | 1013.8 |
| 20260507093827 | 60 | 17 | 3.0 | 8.0 | 0.00 | 0.00 | 0.00 | 86 | 1013.7 |
| 20260507092820 | 60 | 10 | 2.0 | 12.0 | 0.00 | 0.00 | 0.00 | 86 | 1013.7 |
| 20260507091819 | 60 | 5 | 4.0 | 12.0 | 0.00 | 0.00 | 0.00 | 86 | 1013.7 |
| 20260507090803 | 60 | 5 | 1.0 | 7.0 | 0.00 | 0.00 | 0.00 | 86 | 1013.7 |
| 20260507085753 | 60 | 355 | 1.0 | 7.0 | 0.00 | 0.00 | 0.00 | 86 | 1013.5 |
| 20260507084758 | 60 | 329 | 1.0 | 4.0 | 0.00 | 0.00 | 0.00 | 86 | 1013.4 |
| 20260507083729 | 60 | 19 | 1.0 | 4.0 | 0.00 | 0.00 | 0.00 | 86 | 1013.5 |
| 20260507082702 | 60 | 12 | 0.0 | 3.0 | 0.00 | 0.00 | 0.00 | 86 | 1013.4 |
| 20260507081655 | 60 | 342 | 0.0 | 0.0 | 0.00 | 0.00 | 0.00 | 86 | 1013.5 |
| 20260507080701 | 60 | 32 | 0.0 | 6.0 | 0.00 | 0.00 | 0.00 | 86 | 1013.2 |
| 20260507075633 | 60 | 39 | 1.0 | 6.0 | 0.00 | 0.00 | 0.00 | 85 | 1013.1 |
| 20260507074607 | 60 | 16 | 1.0 | 5.0 | 0.00 | 0.00 | 0.00 | 85 | 1013.1 |
| 20260507073618 | 60 | 38 | 1.0 | 4.0 | 0.00 | 0.00 | 0.00 | 85 | 1012.9 |
| 20260507072631 | 60 | 59 | 1.0 | 4.0 | 0.00 | 0.00 | 0.00 | 85 | 1012.7 |
| 20260507071611 | 60 | 36 | 0.0 | 3.0 | 0.00 | 0.00 | 0.00 | 85 | 1013.1 |
| 20260507070541 | 60 | 43 | 1.0 | 7.0 | 0.00 | 0.00 | 0.00 | 85 | 1013.1 |
| 20260507064439 | 61 | 48 | 1.0 | 5.0 | 0.00 | 0.00 | 0.00 | 84 | 1013.1 |
| 20260507061206 | 61 | 28 | 2.0 | 10.0 | 0.00 | 0.00 | 0.00 | 85 | 1012.2 |
| 20260507060151 | 61 | 25 | 1.0 | 8.0 | 0.00 | 0.00 | 0.00 | 85 | 1013.0 |
| 20260507055208 | 61 | 17 | 2.0 | 8.0 | 0.00 | 0.00 | 0.00 | 84 | 1012.8 |
| 20260507054233 | 61 | 25 | 2.0 | 8.0 | 0.00 | 0.00 | 0.00 | 85 | 1012.6 |
| 20260507053223 | 61 | 342 | 2.0 | 7.0 | 0.00 | 0.00 | 0.00 | 84 | 1013.0 |
| 20260507052149 | 61 | 75 | 2.0 | 6.0 | 0.00 | 0.00 | 0.00 | 84 | 1012.9 |
| 20260507051157 | 61 | 62 | 3.0 | 9.0 | 0.00 | 0.00 | 0.00 | 84 | 1012.7 |
| 20260507050217 | 61 | 24 | 3.0 | 9.0 | 0.00 | 0.00 | 0.00 | 84 | 1012.5 |
| 20260507045209 | 61 | 15 | 2.0 | 8.0 | 0.00 | 0.00 | 0.00 | 84 | 1012.5 |
| 20260507044221 | 61 | 0 | 2.0 | 12.0 | 0.00 | 0.00 | 0.00 | 84 | 1012.7 |
| 20260507043210 | 62 | 329 | 3.0 | 12.0 | 0.00 | 0.00 | 0.00 | 84 | 1012.5 |
| 20260507042148 | 62 | 15 | 4.0 | 10.0 | 0.00 | 0.00 | 0.00 | 84 | 1012.7 |
| 20260507041141 | 62 | 19 | 3.0 | 10.0 | 0.00 | 0.00 | 0.00 | 84 | 1012.7 |
| 20260507040116 | 62 | 13 | 3.0 | 10.0 | 0.00 | 0.00 | 0.00 | 84 | 1012.2 |
| 20260507035116 | 62 | 355 | 4.0 | 12.0 | 0.00 | 0.00 | 0.00 | 84 | 1012.3 |
| 20260507034044 | 62 | 11 | 4.0 | 13.0 | 0.00 | 0.00 | 0.00 | 84 | 1012.6 |
| 20260507033028 | 62 | 15 | 3.0 | 13.0 | 0.00 | 0.00 | 0.00 | 84 | 1012.2 |
| 20260507032028 | 62 | 24 | 4.0 | 12.0 | 0.00 | 0.00 | 0.00 | 84 | 1012.3 |
| 20260507031000 | 62 | 341 | 4.0 | 11.0 | 0.00 | 0.00 | 0.00 | 85 | 1012.0 |
| 20260507022550 | 62 | 355 | 3.0 | 10.0 | 0.00 | 0.00 | 0.00 | 85 | 1011.9 |
| 20260507021609 | 62 | 327 | 3.0 | 9.0 | 0.00 | 0.00 | 0.00 | 85 | 1011.6 |
| 20260507013102 | 63 | 345 | 3.0 | 10.0 | 0.00 | 0.00 | 0.00 | 83 | 1010.6 |
| 20260507010952 | 63 | 344 | 3.0 | 9.0 | 0.00 | 0.00 | 0.00 | 83 | 1010.6 |
| 20260507005918 | 63 | 355 | 5.0 | 11.0 | 0.00 | 0.00 | 0.00 | 82 | 1010.3 |
| 20260507004927 | 63 | 355 | 4.0 | 11.0 | 0.00 | 0.00 | 0.00 | 82 | 1010.4 |
| 20260507003950 | 63 | 46 | 3.0 | 11.0 | 0.00 | 0.00 | 0.00 | 83 | 1010.2 |
| 20260507002941 | 63 | 48 | 5.0 | 11.0 | 0.00 | 0.00 | 0.00 | 82 | 1009.8 |
| 20260507001920 | 63 | 344 | 5.0 | 12.0 | 0.00 | 0.00 | 0.00 | 82 | 1010.0 |
| 20260507000859 | 63 | 57 | 5.0 | 13.0 | 0.00 | 0.00 | 0.00 | 82 | 1010.0 |
| 20260506235832 | 63 | 17 | 5.0 | 14.0 | 0.00 | 0.00 | 0.00 | 81 | 1009.6 |
| 20260506234839 | 63 | 339 | 6.0 | 14.0 | 0.00 | 0.00 | 0.00 | 81 | 1009.7 |
| 20260506233840 | 64 | 12 | 5.0 | 12.0 | 0.00 | 0.00 | 0.00 | 81 | 1009.8 |
| 20260506232843 | 64 | 355 | 5.0 | 12.0 | 0.00 | 0.00 | 0.00 | 80 | 1009.5 |
| 20260506230704 | 64 | 343 | 4.0 | 10.0 | 0.00 | 0.00 | 0.00 | 80 | 1009.4 |
| 20260506223405 | 65 | 318 | 6.0 | 15.0 | 0.00 | 0.00 | 0.00 | 79 | 1009.3 |
| 20260506222403 | 65 | 328 | 5.0 | 13.0 | 0.00 | 0.00 | 0.00 | 78 | 1009.2 |
| 20260506221343 | 65 | 9 | 7.0 | 14.0 | 0.00 | 0.00 | 0.00 | 78 | 1009.0 |
| 20260506220343 | 65 | 286 | 7.0 | 14.0 | 0.00 | 0.00 | 0.00 | 78 | 1009.2 |
| 20260506215332 | 66 | 355 | 6.0 | 13.0 | 0.00 | 0.00 | 0.00 | 76 | 1009.2 |
| 20260506214334 | 67 | 305 | 6.0 | 13.0 | 0.00 | 0.00 | 0.00 | 77 | 1009.2 |
| 20260506213346 | 68 | 306 | 6.0 | 12.0 | 0.00 | 0.00 | 0.00 | 74 | 1009.0 |
| 20260506212346 | 69 | 5 | 5.0 | 13.0 | 0.00 | 0.00 | 0.00 | 74 | 1008.9 |
| 20260506211321 | 70 | 344 | 7.0 | 15.0 | 0.00 | 0.00 | 0.00 | 72 | 1008.9 |
| 20260506210320 | 72 | 355 | 6.0 | 15.0 | 0.00 | 0.00 | 0.00 | 71 | 1008.9 |
| 20260506205338 | 72 | 49 | 6.0 | 16.0 | 0.00 | 0.00 | 0.00 | 73 | 1008.9 |
| 20260506204358 | 71 | 11 | 7.0 | 16.0 | 0.00 | 0.00 | 0.00 | 75 | 1008.9 |
| 20260506203351 | 72 | 28 | 6.0 | 14.0 | 0.00 | 0.00 | 0.00 | 74 | 1009.1 |
| 20260506201237 | 73 | 355 | 6.0 | 15.0 | 0.00 | 0.00 | 0.00 | 74 | 1009.2 |
| 20260506195104 | 74 | 314 | 6.0 | 15.0 | 0.00 | 0.00 | 0.00 | 75 | 1008.9 |
| 20260506194108 | 75 | 5 | 6.0 | 15.0 | 0.00 | 0.00 | 0.00 | 73 | 1008.7 |
| 20260506193106 | 76 | 339 | 6.0 | 15.0 | 0.00 | 0.00 | 0.00 | 73 | 1008.5 |
| 20260506192034 | 78 | 355 | 6.0 | 15.0 | 0.00 | 0.00 | 0.00 | 72 | 1008.5 |
| 20260506191002 | 79 | 355 | 4.0 | 10.0 | 0.00 | 0.00 | 0.00 | 71 | 1008.4 |
| 20260506185945 | 81 | 61 | 3.0 | 8.0 | 0.00 | 0.00 | 0.00 | 71 | 1008.6 |
| 20260506184944 | 82 | 5 | 2.0 | 9.0 | 0.00 | 0.00 | 0.00 | 69 | 1008.6 |
| 20260506183914 | 81 | 37 | 2.0 | 9.0 | 0.00 | 0.00 | 0.00 | 71 | 1008.5 |
| 20260506182901 | 81 | 351 | 1.0 | 7.0 | 0.00 | 0.00 | 0.00 | 71 | 1008.3 |
| 20260506181901 | 80 | 301 | 1.0 | 7.0 | 0.00 | 0.00 | 0.00 | 72 | 1008.5 |
| 20260506180909 | 78 | 24 | 1.0 | 9.0 | 0.00 | 0.00 | 0.00 | 75 | 1008.6 |
| 20260506175927 | 77 | 30 | 2.0 | 9.0 | 0.00 | 0.00 | 0.00 | 75 | 1008.5 |
| 20260506173729 | 75 | 54 | 2.0 | 6.0 | 0.00 | 0.00 | 0.00 | 75 | 1008.6 |
| 20260506172708 | 75 | 5 | 1.0 | 6.0 | 0.00 | 0.00 | 0.00 | 76 | 1008.6 |
| 20260506171728 | 74 | 15 | 2.0 | 8.0 | 0.00 | 0.00 | 0.00 | 77 | 1008.8 |
| 20260506170722 | 72 | 0 | 3.0 | 9.0 | 0.00 | 0.00 | 0.00 | 82 | 1008.8 |
| 20260506165658 | 70 | 33 | 2.0 | 9.0 | 0.00 | 0.00 | 0.00 | 82 | 1008.8 |
| 20260506164624 | 68 | 20 | 4.0 | 11.0 | 0.00 | 0.00 | 0.00 | 84 | 1009.0 |
| 20260506163612 | 67 | 337 | 4.0 | 12.0 | 0.00 | 0.00 | 0.00 | 84 | 1009.3 |
| 20260506162550 | 68 | 30 | 5.0 | 12.0 | 0.00 | 0.00 | 0.00 | 84 | 1009.6 |
| 20260506161526 | 69 | 355 | 6.0 | 15.0 | 0.00 | 0.00 | 0.00 | 84 | 1009.8 |
| 20260506160525 | 72 | 5 | 6.0 | 15.0 | 0.00 | 0.00 | 0.00 | 80 | 1010.0 |
| 20260506155530 | 77 | 330 | 3.0 | 14.0 | 0.00 | 0.00 | 0.00 | 77 | 1009.4 |
| 20260506154539 | 78 | 43 | 0.0 | 5.0 | 0.00 | 0.00 | 0.00 | 85 | 1009.1 |
| 20260506153527 | 77 | 54 | 0.0 | 3.0 | 0.00 | 0.00 | 0.00 | 86 | 1008.8 |
| 20260506152522 | 77 | 86 | 0.0 | 0.0 | 0.00 | 0.00 | 0.00 | 86 | 1008.7 |
| 20260506150341 | 77 | 123 | 0.0 | 1.0 | 0.00 | 0.00 | 0.00 | 87 | 1008.1 |
| 20260506145342 | 77 | 182 | 0.0 | 5.0 | 0.00 | 0.00 | 0.00 | 87 | 1007.7 |
| 20260506144351 | 77 | 144 | 0.0 | 3.0 | 0.00 | 0.00 | 0.00 | 87 | 1007.6 |
| 20260506142232 | 76 | 143 | 2.0 | 7.0 | 0.00 | 0.00 | 0.00 | 88 | 1007.2 |
| 20260506134907 | 75 | 182 | 1.0 | 5.0 | 0.00 | 0.00 | 0.00 | 90 | 1007.2 |
| 20260506133919 | 75 | 193 | 1.0 | 6.0 | 0.00 | 0.00 | 0.00 | 91 | 1006.8 |
| 20260506132907 | 75 | 140 | 2.0 | 7.0 | 0.00 | 0.00 | 0.00 | 91 | 1006.8 |
| 20260506130712 | 75 | 122 | 2.0 | 8.0 | 0.00 | 0.00 | 0.00 | 92 | 1006.6 |
| 20260506125716 | 75 | 153 | 2.0 | 8.0 | 0.00 | 0.00 | 0.00 | 92 | 1006.5 |
| 20260506124734 | 74 | 142 | 1.0 | 7.0 | 0.00 | 0.00 | 0.00 | 92 | 1006.4 |
| 20260506123724 | 74 | 118 | 1.0 | 6.0 | 0.00 | 0.00 | 0.00 | 92 | 1006.4 |
| 20260506122729 | 74 | 141 | 0.0 | 2.0 | 0.00 | 0.00 | 0.00 | 92 | 1006.4 |
| 20260506121716 | 74 | 130 | 0.0 | 2.0 | 0.00 | 0.00 | 0.00 | 92 | 1006.5 |
| 20260506120702 | 75 | 116 | 0.0 | 2.0 | 0.00 | 0.00 | 0.00 | 91 | 1006.6 |
| 20260506115712 | 75 | 144 | 0.0 | 2.0 | 0.00 | 0.00 | 0.00 | 91 | 1006.4 |
| 20260506114642 | 75 | 98 | 0.0 | 2.0 | 0.00 | 0.00 | 0.00 | 91 | 1006.3 |